Vancouver Int'l Airport, British Columbia

Past 24 Hour Conditions

This table is a summary of hourly weather conditions for the past 24 hours. This summary includes the following parameters: temperature, humidity, dew point, wind speed and direction, air pressure, visibility and/or wind chill and humidex.
Date / Time
(PDT)
Conditions Temp (°C) Humidity (%) Dew Point (°C) Wind (km/h) Pressure (kPa) Vis (km) Humidex
22 August 2014
14:00 Mostly Cloudy 20 74 16 W 17 101.8 32 25
13:00 Mostly Cloudy 20 76 16 NW 14 101.8 32 25
12:00 Mostly Cloudy 20 77 16 W 14 101.8 32 *
11:00 Mostly Cloudy 19 80 16 WNW 11 101.8 32 *
10:00 Cloudy 18 76 14 NW 9 101.8 24 *
9:00 Mostly Cloudy 17 77 13 N 2 101.8 24 *
8:00 Mostly Cloudy 16 87 14 SE 5 101.8 24 *
7:00 Mostly Cloudy 15 86 13 SE 5 101.7 24 *
6:00 Mainly Clear 14   89 12 ESE 7 101.7 24 *
5:00 Clear 14   93 13 calm 101.7 32 *
4:00 Clear 14   88 13 SSE 5 101.7 32 *
3:00 Clear 15 86 12 SE 8 101.6 32 *
2:00 Clear 15 80 12 SE 8 101.6 32 *
1:00 Mainly Clear 15 83 12 N 3 101.6 32 *
00:00 Partly Cloudy 17 78 13 E 7 101.6 32 *
21 August 2014
23:00 Mostly Cloudy 17 82 14 E 11 101.6 32 *
22:00 Mostly Cloudy 17 78 13 E 11 101.6 32 *
21:00 Mostly Cloudy 18 73 13 SE 10 101.5 32 *
20:00 Partly Cloudy 19 67 13 SE 12 101.5 32 *
19:00 Mostly Cloudy 20 61 12 SSE 13 101.5 32 *
18:00 Partly Cloudy 21   55 12 SSE 13 101.5 48 *
17:00 Mainly Sunny 20 70 15 SSW 14 101.5 48 *
16:00 Mainly Sunny 20 70 15 SSW 17 gust 29 101.5 48 *
15:00 Mainly Sunny 20 71 14 SSW 18 gust 30 101.6 32 *
14:00 Mainly Sunny 20 71 15 SW 18 101.6 32 *
N/A
Not available
 ↑ 
Highest temperature
 ↓ 
Lowest temperature
*
Value not significant.

If you require additional historical weather information, please visit Climate Data Online.